| time (UTC) | temp F | wind direction | speed knots | gust knots | rain 1hr in | rain 24hr in | rain mn in | humidity % | barometer mb |
| 20260905165013 | 86 | 76 | 0.9 | 4.3 | 0.00 | 1.67 | 0.00 | 80 | 1014.5 |
| 20260905164532 | 86 | 42 | 2.6 | 5.2 | 0.00 | 1.68 | 0.00 | 81 | 1014.6 |
| 20260905164017 | 85 | 312 | 2.6 | 6.1 | 0.00 | 1.68 | 0.00 | 80 | 1014.7 |
| 20260905163503 | 85 | 309 | 2.6 | 7.8 | 0.00 | 1.68 | 0.00 | 82 | 1014.7 |
| 20260905163009 | 85 | 352 | 3.5 | 7.8 | 0.00 | 1.68 | 0.00 | 81 | 1014.9 |
| 20260905162507 | 86 | 24 | 2.6 | 5.2 | 0.00 | 1.68 | 0.00 | 81 | 1014.9 |
| 20260905162005 | 86 | 334 | 1.7 | 4.3 | 0.00 | 1.68 | 0.00 | 81 | 1014.9 |
| 20260905161514 | 85 | 311 | 1.7 | 3.5 | 0.00 | 1.68 | 0.00 | 80 | 1014.9 |
| 20260905161008 | 85 | 80 | 0.9 | 4.3 | 0.00 | 1.68 | 0.00 | 82 | 1014.8 |
| 20260905160509 | 85 | 57 | 2.6 | 3.5 | 0.00 | 1.68 | 0.00 | 81 | 1014.9 |
| 20260905160021 | 84 | 346 | 0.9 | 3.5 | 0.00 | 1.68 | 0.00 | 83 | 1015.0 |
| 20260905155514 | 83 | 5 | 0.9 | 4.3 | 0.00 | 1.68 | 0.00 | 85 | 1015.0 |
| 20260905155011 | 83 | 86 | 1.7 | 5.2 | 0.00 | 1.68 | 0.00 | 90 | 1014.9 |
| 20260905154526 | 82 | 22 | 1.7 | 6.1 | 0.00 | 1.68 | 0.00 | 90 | 1014.9 |
| 20260905154015 | 83 | 22 | 2.6 | 6.1 | 0.00 | 1.68 | 0.00 | 89 | 1014.9 |
| 20260905153516 | 83 | 14 | 2.6 | 4.3 | 0.00 | 1.68 | 0.00 | 90 | 1014.9 |
| 20260905153037 | 82 | 45 | 0.9 | 3.5 | 0.00 | 1.68 | 0.00 | 91 | 1014.9 |
| 20260905152504 | 82 | 23 | 0.9 | 2.6 | 0.00 | 1.68 | 0.00 | 92 | 1015.1 |
| 20260905152006 | 81 | 15 | 0.0 | 3.5 | 0.00 | 1.68 | 0.00 | 93 | 1015.1 |
| 20260905151515 | 81 | 17 | 1.7 | 3.5 | 0.00 | 1.68 | 0.00 | 93 | 1015.2 |
| 20260905151007 | 81 | 360 | 1.7 | 3.5 | 0.00 | 1.68 | 0.00 | 94 | 1015.1 |
| 20260905150506 | 81 | 317 | 0.9 | 2.6 | 0.00 | 1.68 | 0.00 | 95 | 1015.1 |
| 20260905150019 | 80 | 103 | 0.0 | 1.7 | 0.00 | 1.68 | 0.00 | 97 | 1015.1 |
| 20260905145512 | 80 | 18 | 0.0 | 1.7 | 0.00 | 1.68 | 0.00 | 97 | 1015.1 |
| 20260905145010 | 79 | 18 | 0.0 | 1.7 | 0.00 | 1.68 | 0.00 | 98 | 1015.0 |
| 20260905144528 | 79 | 142 | 0.0 | 0.0 | 0.00 | 1.68 | 0.00 | 98 | 1015.0 |
| 20260905144011 | 79 | 40 | 0.0 | 0.0 | 0.00 | 1.68 | 0.00 | 98 | 1015.0 |
| 20260905143515 | 78 | 40 | 0.0 | 0.0 | 0.00 | 1.68 | 0.00 | 98 | 1014.9 |
| 20260905143032 | 78 | 40 | 0.0 | 0.0 | 0.00 | 1.68 | 0.00 | 98 | 1015.0 |
| 20260905142514 | 78 | 31 | 0.0 | 0.0 | 0.00 | 1.68 | 0.00 | 98 | 1015.0 |
| 20260905142014 | 78 | 31 | 0.0 | 0.0 | 0.00 | 1.68 | 0.00 | 98 | 1015.0 |
| 20260905141511 | 78 | 31 | 0.0 | 0.0 | 0.00 | 1.68 | 0.00 | 98 | 1015.0 |
| 20260905141006 | 77 | 78 | 0.0 | 3.5 | 0.00 | 1.68 | 0.00 | 98 | 1014.9 |
| 20260905140508 | 77 | 85 | 0.0 | 3.5 | 0.00 | 1.68 | 0.00 | 98 | 1014.9 |
| 20260905140029 | 77 | 82 | 0.9 | 3.5 | 0.00 | 1.68 | 0.00 | 98 | 1014.9 |
| 20260905135507 | 77 | 97 | 2.6 | 3.5 | 0.00 | 1.68 | 0.00 | 98 | 1014.9 |
| 20260905135012 | 77 | 105 | 1.7 | 3.5 | 0.00 | 1.68 | 0.00 | 98 | 1015.0 |
| 20260905134525 | 77 | 89 | 1.7 | 3.5 | 0.00 | 1.68 | 0.00 | 98 | 1015.0 |
| 20260905134013 | 76 | 53 | 0.9 | 3.5 | 0.00 | 1.68 | 0.00 | 98 | 1015.0 |
| 20260905133513 | 76 | 93 | 1.7 | 3.5 | 0.00 | 1.68 | 0.00 | 98 | 1014.9 |
| 20260905133030 | 76 | 73 | 2.6 | 3.5 | 0.00 | 1.68 | 0.00 | 98 | 1015.0 |
| 20260905132514 | 76 | 82 | 0.9 | 2.6 | 0.00 | 1.68 | 0.00 | 98 | 1015.0 |
| 20260905132019 | 76 | 82 | 1.7 | 2.6 | 0.00 | 1.68 | 0.00 | 98 | 1015.0 |
| 20260905131529 | 76 | 36 | 1.7 | 2.6 | 0.00 | 1.68 | 0.00 | 98 | 1015.0 |
| 20260905131003 | 75 | 61 | 0.9 | 2.6 | 0.00 | 1.68 | 0.00 | 98 | 1015.0 |
| 20260905130509 | 75 | 83 | 0.9 | 2.6 | 0.00 | 1.68 | 0.00 | 98 | 1015.0 |
| 20260905130017 | 75 | 360 | 0.0 | 1.7 | 0.00 | 1.68 | 0.00 | 98 | 1015.0 |
| 20260905125508 | 75 | 22 | 0.0 | 1.7 | 0.00 | 1.68 | 0.00 | 98 | 1014.9 |
| 20260905125011 | 75 | 48 | 0.0 | 1.7 | 0.00 | 1.68 | 0.00 | 98 | 1014.9 |
| 20260905124525 | 75 | 339 | 0.9 | 1.7 | 0.00 | 1.68 | 0.00 | 98 | 1014.7 |
| 20260905124013 | 74 | 30 | 0.9 | 1.7 | 0.00 | 1.68 | 0.00 | 98 | 1014.7 |
| 20260905123514 | 74 | 86 | 0.0 | 1.7 | 0.00 | 1.68 | 0.00 | 98 | 1014.7 |
| 20260905123033 | 74 | 67 | 0.9 | 2.6 | 0.00 | 1.68 | 0.00 | 98 | 1014.7 |
| 20260905122514 | 74 | 22 | 0.0 | 2.6 | 0.00 | 1.68 | 0.00 | 98 | 1014.7 |
| 20260905122022 | 74 | 26 | 1.7 | 2.6 | 0.00 | 1.68 | 0.00 | 98 | 1014.7 |
| 20260905121532 | 74 | 46 | 0.0 | 0.0 | 0.00 | 1.68 | 0.00 | 98 | 1014.7 |
| 20260905121017 | 74 | 46 | 0.0 | 0.0 | 0.00 | 1.68 | 0.00 | 98 | 1014.6 |
| 20260905120517 | 74 | 46 | 0.0 | 0.0 | 0.00 | 1.68 | 0.00 | 98 | 1014.4 |
| 20260905120018 | 74 | 291 | 0.0 | 0.0 | 0.00 | 1.68 | 0.00 | 98 | 1014.3 |
| 20260905115506 | 74 | 291 | 0.0 | 0.0 | 0.00 | 1.68 | 0.00 | 98 | 1014.2 |
| 20260905115010 | 74 | 291 | 0.0 | 0.0 | 0.00 | 1.68 | 0.00 | 98 | 1014.2 |
| 20260905114526 | 74 | 185 | 0.0 | 0.0 | 0.00 | 1.68 | 0.00 | 98 | 1014.2 |
| 20260905114011 | 74 | 169 | 0.0 | 1.7 | 0.00 | 1.68 | 0.00 | 98 | 1014.1 |
| 20260905113512 | 74 | 172 | 0.0 | 1.7 | 0.00 | 1.68 | 0.00 | 98 | 1014.0 |
| 20260905113030 | 74 | 180 | 0.9 | 1.7 | 0.00 | 1.68 | 0.00 | 98 | 1013.8 |
| 20260905112515 | 74 | 193 | 0.0 | 0.0 | 0.00 | 1.68 | 0.00 | 98 | 1013.9 |
| 20260905112015 | 74 | 180 | 0.0 | 0.0 | 0.00 | 1.68 | 0.00 | 98 | 1013.9 |
| 20260905111536 | 74 | 70 | 0.0 | 0.0 | 0.00 | 1.68 | 0.00 | 98 | 1013.9 |
| 20260905111015 | 74 | 70 | 0.0 | 0.0 | 0.00 | 1.68 | 0.00 | 98 | 1013.9 |
| 20260905110514 | 74 | 70 | 0.0 | 0.0 | 0.00 | 1.68 | 0.00 | 98 | 1013.9 |
| 20260905110032 | 74 | 70 | 0.0 | 0.0 | 0.00 | 1.68 | 0.00 | 98 | 1013.9 |
| 20260905105519 | 74 | 70 | 0.0 | 0.0 | 0.00 | 1.68 | 0.00 | 98 | 1013.9 |
| 20260905105010 | 74 | 70 | 0.0 | 0.0 | 0.00 | 1.68 | 0.00 | 98 | 1013.9 |
| 20260905104525 | 74 | 70 | 0.0 | 0.0 | 0.00 | 1.68 | 0.00 | 98 | 1013.9 |
| 20260905104010 | 74 | 70 | 0.0 | 0.0 | 0.00 | 1.68 | 0.00 | 98 | 1013.9 |
| 20260905103511 | 74 | 70 | 0.0 | 0.0 | 0.00 | 1.68 | 0.00 | 98 | 1013.9 |
| 20260905103025 | 74 | 70 | 0.0 | 0.0 | 0.00 | 1.68 | 0.00 | 98 | 1013.8 |
| 20260905102513 | 74 | 70 | 0.0 | 0.0 | 0.00 | 1.68 | 0.00 | 98 | 1013.8 |
| 20260905102015 | 74 | 70 | 0.0 | 0.0 | 0.00 | 1.68 | 0.00 | 98 | 1013.7 |
| 20260905101531 | 74 | 70 | 0.0 | 0.0 | 0.00 | 1.68 | 0.00 | 98 | 1013.9 |
| 20260905101014 | 74 | 70 | 0.0 | 0.0 | 0.00 | 1.68 | 0.00 | 98 | 1013.9 |
| 20260905100514 | 74 | 70 | 0.0 | 0.0 | 0.00 | 1.68 | 0.00 | 98 | 1013.9 |
| 20260905100033 | 74 | 70 | 0.0 | 0.0 | 0.00 | 1.68 | 0.00 | 98 | 1013.9 |
| 20260905095515 | 74 | 70 | 0.0 | 0.0 | 0.00 | 1.68 | 0.00 | 98 | 1013.8 |
| 20260905095016 | 74 | 70 | 0.0 | 0.0 | 0.00 | 1.68 | 0.00 | 98 | 1013.8 |
| 20260905094532 | 74 | 70 | 0.0 | 0.0 | 0.00 | 1.68 | 0.00 | 98 | 1013.8 |
| 20260905094008 | 74 | 79 | 0.0 | 0.0 | 0.00 | 1.68 | 0.00 | 98 | 1013.9 |
| 20260905093511 | 74 | 79 | 0.0 | 0.0 | 0.00 | 1.68 | 0.00 | 98 | 1013.9 |
| 20260905093026 | 74 | 79 | 0.0 | 0.0 | 0.00 | 1.68 | 0.00 | 98 | 1013.8 |
| 20260905092511 | 74 | 79 | 0.0 | 0.0 | 0.00 | 1.68 | 0.00 | 98 | 1013.8 |
| 20260905092010 | 74 | 79 | 0.0 | 0.0 | 0.00 | 1.68 | 0.00 | 98 | 1013.8 |
| 20260905091527 | 74 | 79 | 0.0 | 0.0 | 0.00 | 1.68 | 0.00 | 98 | 1013.7 |
| 20260905091015 | 74 | 80 | 0.0 | 0.0 | 0.00 | 1.68 | 0.00 | 98 | 1013.7 |
| 20260905090515 | 74 | 42 | 0.0 | 0.0 | 0.00 | 1.68 | 0.00 | 98 | 1013.6 |
| 20260905090039 | 74 | 42 | 0.0 | 0.0 | 0.00 | 1.68 | 0.00 | 98 | 1013.6 |
| 20260905085514 | 74 | 42 | 0.0 | 0.0 | 0.00 | 1.68 | 0.00 | 98 | 1013.7 |
| 20260905085005 | 74 | 42 | 0.0 | 0.0 | 0.00 | 1.68 | 0.00 | 98 | 1013.7 |
| 20260905084515 | 74 | 42 | 0.0 | 0.0 | 0.00 | 1.68 | 0.00 | 98 | 1013.7 |
| 20260905084008 | 74 | 42 | 0.0 | 0.0 | 0.00 | 1.68 | 0.00 | 98 | 1013.6 |
| 20260905083508 | 74 | 42 | 0.0 | 0.0 | 0.00 | 1.68 | 0.00 | 98 | 1013.6 |
| 20260905083033 | 74 | 42 | 0.0 | 0.0 | 0.00 | 1.68 | 0.00 | 98 | 1013.6 |
| 20260905082510 | 74 | 42 | 0.0 | 0.0 | 0.00 | 1.68 | 0.00 | 98 | 1013.7 |
| 20260905082013 | 74 | 42 | 0.0 | 0.9 | 0.00 | 1.68 | 0.00 | 98 | 1013.6 |
| 20260905081503 | 74 | 42 | 0.0 | 1.7 | 0.00 | 1.68 | 0.00 | 98 | 1013.5 |
| 20260905081003 | 74 | 42 | 0.9 | 1.7 | 0.00 | 1.68 | 0.00 | 98 | 1013.4 |
| 20260905080503 | 74 | 41 | 0.0 | 0.0 | 0.00 | 1.68 | 0.00 | 98 | 1013.5 |
| 20260905080009 | 74 | 51 | 0.0 | 0.0 | 0.00 | 1.68 | 0.00 | 98 | 1013.4 |
| 20260905075506 | 74 | 51 | 0.0 | 0.0 | 0.00 | 1.68 | 0.00 | 98 | 1013.5 |
| 20260905075003 | 74 | 51 | 0.0 | 0.0 | 0.00 | 1.68 | 0.00 | 98 | 1013.4 |
| 20260905074515 | 74 | 51 | 0.0 | 0.0 | 0.00 | 1.68 | 0.00 | 98 | 1013.3 |
| 20260905074006 | 74 | 51 | 0.0 | 0.0 | 0.00 | 1.68 | 0.00 | 98 | 1013.4 |
| 20260905073508 | 74 | 51 | 0.0 | 0.0 | 0.00 | 1.68 | 0.00 | 98 | 1013.4 |
| 20260905073024 | 74 | 51 | 0.0 | 0.0 | 0.00 | 1.68 | 0.00 | 98 | 1013.3 |
| 20260905072511 | 74 | 51 | 0.0 | 0.0 | 0.00 | 1.68 | 0.00 | 98 | 1013.4 |
| 20260905072011 | 74 | 51 | 0.0 | 0.0 | 0.00 | 1.68 | 0.00 | 98 | 1013.5 |
| 20260905071527 | 74 | 93 | 0.0 | 0.0 | 0.00 | 1.68 | 0.00 | 98 | 1013.4 |
| 20260905071016 | 74 | 93 | 0.0 | 0.0 | 0.00 | 1.68 | 0.00 | 98 | 1013.3 |
| 20260905070502 | 74 | 93 | 0.0 | 0.0 | 0.00 | 1.68 | 0.00 | 98 | 1013.4 |
| 20260905070012 | 74 | 80 | 0.0 | 0.0 | 0.00 | 1.68 | 0.00 | 98 | 1013.4 |
| 20260905065502 | 74 | 80 | 0.0 | 0.0 | 0.00 | 1.68 | 0.00 | 98 | 1013.3 |
| 20260905065003 | 74 | 80 | 0.0 | 0.0 | 0.00 | 1.68 | 0.00 | 98 | 1013.2 |
| 20260905064514 | 74 | 178 | 0.0 | 0.0 | 0.00 | 1.68 | 0.00 | 98 | 1013.3 |
| 20260905064003 | 74 | 178 | 0.0 | 0.0 | 0.00 | 1.68 | 0.00 | 98 | 1013.3 |
| 20260905063506 | 75 | 178 | 0.0 | 0.0 | 0.00 | 1.68 | 0.00 | 98 | 1013.4 |
| 20260905063017 | 75 | 178 | 0.0 | 0.0 | 0.00 | 1.68 | 0.00 | 98 | 1013.5 |
| 20260905062507 | 75 | 163 | 0.0 | 0.0 | 0.00 | 1.68 | 0.00 | 98 | 1013.5 |
| 20260905062011 | 75 | 163 | 0.0 | 0.0 | 0.00 | 1.68 | 0.00 | 98 | 1013.5 |
| 20260905061525 | 75 | 163 | 0.0 | 0.0 | 0.00 | 1.68 | 0.00 | 98 | 1013.5 |
| 20260905061011 | 75 | 163 | 0.0 | 0.0 | 0.00 | 1.68 | 0.00 | 98 | 1013.5 |
| 20260905060511 | 75 | 163 | 0.0 | 0.0 | 0.00 | 1.68 | 0.00 | 98 | 1013.6 |
| 20260905060005 | 75 | 163 | 0.0 | 0.0 | 0.00 | 1.68 | 0.00 | 98 | 1013.6 |
| 20260905055505 | 75 | 163 | 0.0 | 0.0 | 0.00 | 1.68 | 0.00 | 98 | 1013.6 |
| 20260905055004 | 75 | 163 | 0.0 | 0.0 | 0.01 | 1.68 | 0.00 | 98 | 1013.6 |
| 20260905054512 | 75 | 163 | 0.0 | 0.0 | 0.01 | 1.68 | 0.00 | 98 | 1013.6 |
| 20260905054007 | 75 | 163 | 0.0 | 0.0 | 0.01 | 1.68 | 0.00 | 98 | 1013.6 |
| 20260905053504 | 75 | 163 | 0.0 | 0.0 | 0.01 | 1.68 | 0.00 | 98 | 1013.6 |
| 20260905053014 | 75 | 163 | 0.0 | 0.0 | 0.01 | 1.68 | 0.00 | 98 | 1013.7 |
| 20260905052507 | 75 | 81 | 0.0 | 0.0 | 0.01 | 1.68 | 0.00 | 98 | 1013.8 |
| 20260905052009 | 75 | 81 | 0.0 | 0.0 | 0.01 | 1.68 | 0.00 | 98 | 1013.9 |
| 20260905051529 | 75 | 81 | 0.0 | 0.0 | 0.01 | 1.68 | 0.00 | 98 | 1013.9 |
| 20260905051010 | 75 | 81 | 0.0 | 0.0 | 0.01 | 1.68 | 0.00 | 98 | 1013.9 |
| 20260905050512 | 75 | 81 | 0.0 | 0.0 | 0.01 | 1.68 | 0.00 | 98 | 1013.9 |
| 20260905050027 | 75 | 81 | 0.0 | 0.0 | 0.01 | 1.68 | 0.00 | 98 | 1013.8 |
| 20260905045515 | 75 | 81 | 0.0 | 0.0 | 0.01 | 1.68 | 1.68 | 98 | 1013.9 |
| 20260905045003 | 75 | 81 | 0.0 | 0.0 | 0.00 | 1.67 | 1.67 | 98 | 1014.0 |
| 20260905044509 | 75 | 81 | 0.0 | 0.0 | 0.00 | 1.67 | 1.67 | 98 | 1014.1 |
| 20260905044004 | 75 | 81 | 0.0 | 0.0 | 0.00 | 1.67 | 1.67 | 98 | 1014.1 |
| 20260905043504 | 75 | 81 | 0.0 | 1.7 | 0.00 | 1.67 | 1.67 | 98 | 1014.1 |
| 20260905043016 | 75 | 81 | 0.0 | 1.7 | 0.00 | 1.67 | 1.67 | 98 | 1014.1 |
| 20260905042508 | 75 | 81 | 0.9 | 2.6 | 0.00 | 1.67 | 1.67 | 98 | 1014.2 |
| 20260905042007 | 75 | 57 | 1.7 | 2.6 | 0.00 | 1.67 | 1.67 | 98 | 1014.3 |
| 20260905041522 | 75 | 57 | 1.7 | 2.6 | 0.00 | 1.67 | 1.67 | 98 | 1014.2 |
| 20260905041009 | 75 | 81 | 1.7 | 3.5 | 0.00 | 1.67 | 1.67 | 98 | 1014.2 |
| 20260905040511 | 75 | 81 | 0.0 | 3.5 | 0.00 | 1.67 | 1.67 | 97 | 1014.2 |
| 20260905040033 | 75 | 57 | 0.9 | 2.6 | 0.00 | 1.67 | 1.67 | 97 | 1014.3 |
| 20260905035514 | 75 | 84 | 0.9 | 3.5 | 0.00 | 1.67 | 1.67 | 97 | 1014.3 |
| 20260905035015 | 75 | 38 | 1.7 | 3.5 | 0.00 | 1.67 | 1.67 | 97 | 1014.3 |
| 20260905034531 | 75 | 59 | 1.7 | 3.5 | 0.00 | 1.67 | 1.67 | 97 | 1014.4 |
| 20260905034003 | 75 | 18 | 0.9 | 2.6 | 0.00 | 1.67 | 1.67 | 98 | 1014.4 |
| 20260905033503 | 75 | 62 | 0.0 | 0.0 | 0.00 | 1.67 | 1.67 | 98 | 1014.6 |
| 20260905033010 | 75 | 36 | 0.0 | 0.0 | 0.00 | 1.67 | 1.67 | 97 | 1014.5 |
| 20260905032502 | 75 | 36 | 0.0 | 0.0 | 0.00 | 1.67 | 1.67 | 97 | 1014.5 |
| 20260905032006 | 75 | 36 | 0.0 | 0.0 | 0.00 | 1.67 | 1.67 | 97 | 1014.6 |
| 20260905031520 | 75 | 36 | 0.0 | 0.0 | 0.00 | 1.67 | 1.67 | 97 | 1014.6 |
| 20260905031008 | 75 | 36 | 0.0 | 2.6 | 0.00 | 1.67 | 1.67 | 97 | 1014.6 |
| 20260905030510 | 75 | 29 | 0.0 | 2.6 | 0.00 | 1.67 | 1.67 | 97 | 1014.7 |
| 20260905030028 | 75 | 59 | 0.9 | 3.5 | 0.00 | 1.67 | 1.67 | 97 | 1014.8 |
| 20260905025512 | 75 | 62 | 1.7 | 3.5 | 0.00 | 1.67 | 1.67 | 97 | 1014.8 |
| 20260905025015 | 75 | 75 | 2.6 | 3.5 | 0.00 | 1.67 | 1.67 | 97 | 1014.9 |
| 20260905024532 | 75 | 92 | 0.0 | 2.6 | 0.00 | 1.67 | 1.67 | 97 | 1014.9 |
| 20260905024016 | 75 | 128 | 0.0 | 0.0 | 0.00 | 1.67 | 1.67 | 97 | 1014.8 |
| 20260905023516 | 75 | 128 | 0.0 | 0.0 | 0.00 | 1.67 | 1.67 | 97 | 1014.9 |
| 20260905023014 | 75 | 128 | 0.0 | 0.0 | 0.00 | 1.67 | 1.67 | 97 | 1014.8 |
| 20260905022506 | 75 | 128 | 0.0 | 0.0 | 0.00 | 1.67 | 1.67 | 97 | 1014.9 |
| 20260905022006 | 75 | 43 | 0.0 | 0.0 | 0.00 | 1.67 | 1.67 | 97 | 1015.1 |
| 20260905021516 | 75 | 43 | 0.0 | 0.0 | 0.00 | 1.67 | 1.67 | 97 | 1015.0 |
| 20260905021009 | 75 | 43 | 0.0 | 0.0 | 0.00 | 1.67 | 1.67 | 97 | 1015.0 |
| 20260905020509 | 75 | 43 | 0.0 | 1.7 | 0.00 | 1.67 | 1.67 | 97 | 1014.9 |
| 20260905020026 | 75 | 43 | 0.0 | 1.7 | 0.00 | 1.67 | 1.67 | 97 | 1014.9 |
| 20260905015512 | 75 | 36 | 0.9 | 1.7 | 0.00 | 1.67 | 1.67 | 97 | 1014.9 |
| 20260905015010 | 75 | 28 | 0.0 | 0.0 | 0.00 | 1.67 | 1.67 | 97 | 1014.9 |
| 20260905014529 | 75 | 84 | 0.0 | 0.0 | 0.00 | 1.67 | 1.67 | 97 | 1014.9 |
| 20260905014014 | 75 | 84 | 0.0 | 0.0 | 0.00 | 1.67 | 1.67 | 97 | 1014.7 |
| 20260905013513 | 75 | 84 | 0.0 | 0.0 | 0.00 | 1.67 | 1.67 | 97 | 1014.6 |
| 20260905013034 | 75 | 84 | 0.0 | 0.0 | 0.00 | 1.67 | 1.67 | 97 | 1014.6 |
| 20260905012514 | 75 | 84 | 0.0 | 0.0 | 0.00 | 1.67 | 1.67 | 97 | 1014.5 |
| 20260905012004 | 75 | 84 | 0.0 | 0.0 | 0.00 | 1.67 | 1.67 | 97 | 1014.3 |
| 20260905011516 | 75 | 84 | 0.0 | 0.0 | 0.00 | 1.67 | 1.67 | 97 | 1014.2 |
| 20260905011007 | 76 | 84 | 0.0 | 0.0 | 0.00 | 1.67 | 1.67 | 97 | 1014.3 |
| 20260905010508 | 76 | 84 | 0.0 | 0.0 | 0.00 | 1.67 | 1.67 | 97 | 1014.2 |
| 20260905010021 | 76 | 84 | 0.0 | 0.0 | 0.00 | 1.67 | 1.67 | 97 | 1014.2 |
| 20260905005508 | 75 | 84 | 0.0 | 0.0 | 0.00 | 1.67 | 1.67 | 97 | 1014.2 |
| 20260905005011 | 76 | 84 | 0.0 | 0.0 | 0.00 | 1.67 | 1.67 | 97 | 1014.2 |
| 20260905004527 | 76 | 84 | 0.0 | 0.0 | 0.00 | 1.67 | 1.67 | 97 | 1014.3 |
| 20260905004017 | 76 | 84 | 0.0 | 0.0 | 0.00 | 1.67 | 1.67 | 97 | 1014.4 |
| 20260905003514 | 76 | 84 | 0.0 | 1.7 | 0.00 | 1.67 | 1.67 | 97 | 1014.4 |
| 20260905003033 | 76 | 84 | 0.0 | 1.7 | 0.00 | 1.67 | 1.67 | 97 | 1014.4 |
| 20260905002516 | 76 | 84 | 0.0 | 1.7 | 0.00 | 1.67 | 1.67 | 97 | 1014.5 |
| 20260905002017 | 76 | 84 | 0.9 | 1.7 | 0.00 | 1.67 | 1.67 | 97 | 1014.4 |
| 20260905001537 | 76 | 84 | 0.0 | 0.0 | 0.00 | 1.67 | 1.67 | 97 | 1014.3 |
| 20260905001003 | 76 | 84 | 0.0 | 0.9 | 0.00 | 1.67 | 1.67 | 97 | 1014.2 |
| 20260905000503 | 76 | 63 | 0.0 | 0.9 | 0.00 | 1.67 | 1.67 | 97 | 1014.2 |
| 20260905000026 | 76 | 350 | 0.0 | 1.7 | 0.00 | 1.67 | 1.67 | 97 | 1014.1 |
| 20260904235509 | 76 | 162 | 0.0 | 1.7 | 0.00 | 1.67 | 1.67 | 97 | 1014.1 |
| 20260904235008 | 76 | 321 | 0.0 | 1.7 | 0.00 | 1.67 | 1.67 | 97 | 1014.1 |
| 20260904234524 | 76 | 85 | 0.0 | 0.9 | 0.00 | 1.67 | 1.67 | 97 | 1014.2 |
| 20260904234013 | 76 | 200 | 0.0 | 0.0 | 0.00 | 1.67 | 1.67 | 97 | 1014.2 |
| 20260904233512 | 76 | 311 | 0.0 | 0.0 | 0.00 | 1.67 | 1.67 | 97 | 1014.2 |
| 20260904233004 | 76 | 311 | 0.0 | 0.0 | 0.00 | 1.67 | 1.67 | 97 | 1014.2 |
| 20260904232501 | 76 | 151 | 0.0 | 0.0 | 0.00 | 1.67 | 1.67 | 97 | 1014.1 |
| 20260904232003 | 76 | 151 | 0.0 | 0.0 | 0.00 | 1.67 | 1.67 | 97 | 1014.0 |
| 20260904231513 | 76 | 151 | 0.0 | 0.0 | 0.01 | 1.67 | 1.67 | 97 | 1014.0 |
| 20260904231003 | 76 | 151 | 0.0 | 0.0 | 0.01 | 1.67 | 1.67 | 97 | 1013.9 |
| 20260904230504 | 76 | 151 | 0.0 | 1.7 | 0.02 | 1.67 | 1.67 | 97 | 1013.9 |
| 20260904230041 | 76 | 151 | 0.0 | 1.7 | 0.03 | 1.67 | 1.67 | 97 | 1013.9 |
| 20260904225508 | 75 | 196 | 0.9 | 1.7 | 0.04 | 1.67 | 1.67 | 97 | 1013.8 |
| 20260904225010 | 75 | 173 | 0.0 | 1.7 | 0.05 | 1.67 | 1.67 | 97 | 1013.8 |
| 20260904224520 | 75 | 173 | 0.0 | 1.7 | 0.06 | 1.67 | 1.67 | 97 | 1013.8 |
| 20260904224010 | 75 | 197 | 0.9 | 1.7 | 0.07 | 1.67 | 1.67 | 97 | 1013.9 |
| 20260904223514 | 75 | 179 | 0.0 | 1.7 | 0.08 | 1.67 | 1.67 | 97 | 1013.9 |
| 20260904223027 | 75 | 172 | 0.9 | 1.7 | 0.09 | 1.67 | 1.67 | 97 | 1014.1 |
| 20260904222516 | 75 | 163 | 0.9 | 3.5 | 0.10 | 1.67 | 1.67 | 97 | 1014.0 |
| 20260904222003 | 75 | 121 | 0.9 | 3.5 | 0.11 | 1.67 | 1.67 | 97 | 1013.9 |
| 20260904221510 | 75 | 103 | 0.9 | 2.6 | 0.10 | 1.66 | 1.66 | 97 | 1013.9 |
| 20260904221003 | 75 | 57 | 0.9 | 2.6 | 0.11 | 1.66 | 1.66 | 97 | 1013.9 |
| 20260904220504 | 75 | 82 | 1.7 | 2.6 | 0.10 | 1.65 | 1.65 | 97 | 1014.1 |
| 20260904220014 | 75 | 57 | 0.0 | 2.6 | 0.10 | 1.64 | 1.64 | 97 | 1014.0 |
| 20260904215508 | 75 | 87 | 0.9 | 2.6 | 0.09 | 1.63 | 1.63 | 97 | 1014.0 |
| 20260904215009 | 75 | 111 | 0.9 | 1.7 | 0.08 | 1.62 | 1.62 | 97 | 1014.1 |
| 20260904214518 | 75 | 111 | 0.9 | 1.7 | 0.08 | 1.61 | 1.61 | 97 | 1014.1 |
| 20260904214011 | 75 | 111 | 0.9 | 1.7 | 0.07 | 1.60 | 1.60 | 97 | 1014.1 |
| 20260904213512 | 75 | 103 | 1.7 | 1.7 | 0.07 | 1.59 | 1.59 | 97 | 1014.1 |
| 20260904213027 | 75 | 107 | 0.9 | 1.7 | 0.07 | 1.58 | 1.58 | 97 | 1014.1 |
| 20260904212513 | 75 | 158 | 0.0 | 1.7 | 0.08 | 1.57 | 1.57 | 97 | 1014.0 |
| 20260904212015 | 75 | 158 | 0.0 | 1.7 | 0.09 | 1.56 | 1.56 | 97 | 1014.0 |
| 20260904211530 | 75 | 140 | 0.9 | 1.7 | 0.12 | 1.56 | 1.56 | 97 | 1014.1 |
| 20260904211003 | 75 | 23 | 0.9 | 2.6 | 0.15 | 1.55 | 1.55 | 97 | 1014.1 |
| 20260904210504 | 75 | 43 | 0.9 | 2.6 | 0.20 | 1.55 | 1.55 | 97 | 1014.2 |
| 20260904210019 | 74 | 9 | 0.9 | 1.7 | 0.24 | 1.54 | 1.54 | 97 | 1014.2 |
| 20260904205506 | 74 | 55 | 0.0 | 0.0 | 0.30 | 1.54 | 1.54 | 97 | 1014.2 |
| 20260904205007 | 74 | 352 | 0.0 | 1.7 | 0.37 | 1.54 | 1.54 | 97 | 1014.1 |
| 20260904204516 | 74 | 352 | 0.0 | 3.5 | 0.43 | 1.53 | 1.53 | 97 | 1014.0 |
| 20260904204008 | 74 | 38 | 0.9 | 4.3 | 0.50 | 1.53 | 1.53 | 96 | 1014.1 |
| 20260904203511 | 74 | 67 | 1.7 | 4.3 | 0.57 | 1.52 | 1.52 | 96 | 1014.1 |
| 20260904203025 | 74 | 85 | 2.6 | 4.3 | 0.65 | 1.51 | 1.51 | 96 | 1014.2 |
| 20260904202510 | 74 | 73 | 0.9 | 2.6 | 0.73 | 1.49 | 1.49 | 97 | 1014.2 |
| 20260904202014 | 74 | 58 | 0.0 | 2.6 | 0.80 | 1.47 | 1.47 | 97 | 1014.1 |
| 20260904201529 | 74 | 58 | 0.0 | 4.3 | 0.89 | 1.44 | 1.44 | 96 | 1014.3 |
| 20260904201014 | 73 | 42 | 1.7 | 4.3 | 0.94 | 1.40 | 1.40 | 96 | 1014.4 |
| 20260904200502 | 73 | 352 | 2.6 | 4.3 | 0.99 | 1.35 | 1.35 | 96 | 1014.5 |
| 20260904200027 | 73 | 5 | 1.7 | 2.6 | 1.04 | 1.30 | 1.30 | 96 | 1014.8 |
| 20260904195505 | 73 | 352 | 0.9 | 3.5 | 1.08 | 1.24 | 1.24 | 96 | 1014.9 |
| 20260904195011 | 73 | 17 | 1.7 | 3.5 | 1.09 | 1.16 | 1.16 | 96 | 1014.7 |
| 20260904194517 | 73 | 70 | 0.9 | 3.5 | 1.08 | 1.10 | 1.10 | 96 | 1014.6 |
| 20260904194010 | 72 | 5 | 0.0 | 7.8 | 1.02 | 1.03 | 1.03 | 96 | 1014.4 |
| 20260904193510 | 72 | 83 | 2.6 | 7.8 | 0.94 | 0.95 | 0.95 | 95 | 1014.6 |
| 20260904193021 | 72 | 82 | 3.5 | 6.1 | 0.85 | 0.86 | 0.86 | 95 | 1014.6 |
| 20260904192514 | 72 | 67 | 0.9 | 7.0 | 0.75 | 0.76 | 0.76 | 95 | 1014.7 |
| 20260904192012 | 73 | 107 | 3.5 | 7.8 | 0.66 | 0.67 | 0.67 | 95 | 1015.1 |
| 20260904191529 | 73 | 73 | 6.1 | 8.7 | 0.54 | 0.55 | 0.55 | 94 | 1015.2 |
| 20260904191017 | 73 | 119 | 3.5 | 9.6 | 0.45 | 0.46 | 0.46 | 94 | 1015.3 |
| 20260904190514 | 74 | 160 | 6.1 | 12.2 | 0.35 | 0.36 | 0.36 | 94 | 1015.2 |
| 20260904190029 | 74 | 173 | 5.2 | 12.2 | 0.24 | 0.25 | 0.25 | 94 | 1015.4 |
| 20260904185505 | 74 | 200 | 6.1 | 17.4 | 0.15 | 0.16 | 0.16 | 93 | 1015.4 |
| 20260904185007 | 75 | 203 | 6.1 | 22.6 | 0.07 | 0.08 | 0.08 | 90 | 1015.2 |
| 20260904184513 | 77 | 192 | 9.6 | 22.6 | 0.01 | 0.02 | 0.02 | 86 | 1015.4 |
| 20260904184007 | 80 | 151 | 6.1 | 15.6 | 0.00 | 0.01 | 0.01 | 83 | 1015.2 |
| 20260904183511 | 83 | 146 | 5.2 | 14.8 | 0.00 | 0.01 | 0.01 | 83 | 1015.3 |
| 20260904183017 | 84 | 195 | 0.0 | 2.6 | 0.00 | 0.01 | 0.01 | 83 | 1015.1 |
| 20260904182513 | 84 | 256 | 0.9 | 4.3 | 0.00 | 0.01 | 0.01 | 81 | 1014.9 |
| 20260904182016 | 84 | 341 | 1.7 | 9.6 | 0.00 | 0.01 | 0.01 | 81 | 1014.5 |
| 20260904181530 | 85 | 327 | 2.6 | 9.6 | 0.00 | 0.01 | 0.01 | 80 | 1014.1 |
| 20260904181020 | 84 | 31 | 3.5 | 9.6 | 0.00 | 0.01 | 0.01 | 83 | 1014.2 |
| 20260904180514 | 84 | 329 | 4.3 | 9.6 | 0.00 | 0.01 | 0.01 | 83 | 1014.2 |
| 20260904180028 | 85 | 28 | 4.3 | 9.6 | 0.00 | 0.01 | 0.01 | 82 | 1014.4 |
| 20260904175514 | 86 | 349 | 5.2 | 8.7 | 0.00 | 0.01 | 0.01 | 80 | 1014.5 |
| 20260904175015 | 86 | 344 | 2.6 | 7.8 | 0.00 | 0.01 | 0.01 | 82 | 1014.6 |
| 20260904174515 | 85 | 13 | 1.7 | 7.8 | 0.01 | 0.01 | 0.01 | 84 | 1014.6 |
| 20260904174006 | 84 | 40 | 2.6 | 7.0 | 0.01 | 0.01 | 0.01 | 84 | 1014.7 |
| 20260904173507 | 84 | 28 | 3.5 | 7.0 | 0.01 | 0.01 | 0.01 | 84 | 1014.9 |
| 20260904173017 | 84 | 319 | 4.3 | 7.8 | 0.01 | 0.01 | 0.01 | 85 | 1014.8 |
| 20260904172510 | 84 | 74 | 3.5 | 9.6 | 0.01 | 0.01 | 0.01 | 84 | 1014.9 |
| 20260904172010 | 84 | 352 | 4.3 | 9.6 | 0.01 | 0.01 | 0.01 | 84 | 1015.1 |
| 20260904171527 | 84 | 360 | 4.3 | 8.7 | 0.01 | 0.01 | 0.01 | 86 | 1015.3 |
| 20260904171011 | 84 | 329 | 2.6 | 5.2 | 0.01 | 0.01 | 0.01 | 85 | 1015.4 |
| 20260904170513 | 84 | 346 | 2.6 | 4.3 | 0.01 | 0.01 | 0.01 | 86 | 1015.4 |
| 20260904170043 | 85 | 334 | 2.6 | 3.5 | 0.01 | 0.01 | 0.01 | 87 | 1015.5 |
| 20260904165516 | 85 | 292 | 1.7 | 3.5 | 0.01 | 0.01 | 0.01 | 85 | 1015.5 |